SCP
0 0 0 0 0 0 0 0 0 0 0 0 0 0 0 0 0 0 0 0 0 0 0 0 0 0 0 0 0 0 0 0 0 0 0 0 0 0
0 0 0 0 0 0 0 0 0 0 0 0 0 0 0 0 0 0 0 0 0 0 0 0 0 0 0 0 0 0 0 0 0 0 0 0 0 0
0 0 0 0 0 0 0 0 0 0 0 0 0 0 0 0 0 0 0 0 0 0 0 0 0 0 0 0 0 0 0 0 0 0 0 0 0 0
0 0 0 0 0 0 0 0 0 0 0 0 0 0 0 0 0 0 0 0 0 0 0 0 0 0 0 0 0 0 0 0 0 0 0 0 0 0
0 0 0 0 0 0 0 0 0 0 0 0 0 0 0 0 0 0 0 0 0 0 0 0 0 0 0 0 0 0 0 0 0 0 0 0 0 0
0 0 0 0 0 0 0 0 0 0 0 0 0 0 0 0 0 0 0 0 0 0 0 0 0 0 0 0 0 0 0 0 0 0 0 0 0 0
0 0 0 0 0 0 0 0 0 0 0 0 0 0 0 0 0 0 0 0 0 0 0 0 0 0 0 0 0 0 0 0 0 0 0 0 0 0
0 0 0 0 0 0 0 0 0 0 0 0 0 0 0 0 0 0 0 0 0 0 0 0 0 0 0 0 0 0 0 0 0 0 0 0 0 0
0 0 0 0 0 0 0 0 0 0 0 0 0 0 0 0 0 0 0 0 0 0 0 0 0 0 0 0 0 0 0 0 0 0 0 0 0 0
0 0 0 0 0 0 0 0 0 0 0 0 0 0 0 0 0 0 0 0 0 0 0 0 0 0 0 0 0 0 0 0 0 0 0 0 0 0
0 0 0 0 0 0 0 0 0 0 0 0 0 0 0 0 0 0 0 0 0 0 0 0 0 0 0 0 0 0 0 0 0 0 0 0 0 0
0 0 0 0 0 0 0 0 0 0 0 0 0 0 0 0 0 0 0 0 0 0 0 0 0 0 0 0 0 0 0 0 0 0 0 0 0 0
0 0 0 0 0 0 0 0 0 0 0 0 0 0 0 0 0 0 0 0 0 0 0 0 0 0 0 0 0 0 0 0 0 0 0 0 0 0
0 0 0 0 0 0 0 0 0 0 0 0 0 0 0 0 0 0 0 0 0 0 0 0 0 0 0 0 0 0 0 0 0 0 0 0 0 0
0 0 0 0 0 0 0 0 0 0 0 0 0 0 0 0 0 0 0 0 0 0 0 0 0 0 0 0 0 0 0 0 0 0 0 0 0 0
0 0 0 0 0 0 0 0 0 0 0 0 0 0 0 0 0 0 0 0 0 0 0 0 0 0 0 0 0 0 0 0 0 0 0 0 0 0
0 0 0 0 0 0 0 0 0 0 0 0 0 0 0 0 0 0 0 0 0 0 0 0 0 0 0 0 0 0 0 0 0 0 0 0 0 0
0 0 0 0 0 0 0 0 0 0 0 0 0 0 0 0 0 0 0 0 0 0 0 0 0 0 0 0 0 0 0 0 0 0 0 0 0 0
0 0 0 0 0 0 0 0 0 0 0 0 0 0 0 0 0 0 0 0 0 0 0 0 0 0 0 0 0 0 0 0 0 0 0 0 0 0
0 0 0 0 0 0 0 0 0 0 0 0 0 0 0 0 0 0 0 0 0 0 0 0 0 0 0 0 0 0 0 0 0 0 0 0 0 0
0 0 0 0 0 0 0 0 0 0 0 0 0 0 0 0 0 0 0 0 0 0 0 0 0 0 0 0 0 0 0 0 0 0 0 0 0 0
0 0 0 0 0 0 0 0 0 0 0 0 0 0 0 0 0 0 0 0 0 0 0 0 0 0 0 0 0 0 0 0 0 0 0 0 0 0
0 0 0 0 0 0 0 0 0 0 0 0 0 0 0 0 0 0 0 0 0 0 0 0 0 0 0 0 0 0 0 0 0 0 0 0 0 0
Wind_Speed
7 7 5 4 4 4 4 4 4 6 7 6 4 4 5 5 6 8 9 11 14 16 17 17 18 19 20 21 21 21 21 22 22 23 23 24 24 24
5 7 6 4 4 4 4 4 5 6 7 5 5 6 6 6 8 10 10 13 15 16 17 18 19 20 20 21 21 21 21 22 22 22 23 23 23 23
6 7 7 6 4 4 4 5 5 6 8 8 6 6 8 9 8 9 9 10 9 15 17 18 19 20 21 21 21 20 21 21 21 21 22 22 22 21
7 7 6 4 5 4 4 6 6 6 7 10 8 7 9 9 9 10 9 8 9 13 17 19 19 20 20 20 20 20 20 20 20 20 21 21 21 20
6 6 6 5 6 5 5 5 5 5 6 7 8 7 7 7 9 9 10 9 9 11 15 16 18 19 19 19 19 19 19 19 20 20 20 20 20 20
5 5 5 6 6 5 5 6 5 5 6 6 7 7 7 8 7 8 8 8 8 9 11 13 15 17 18 18 18 18 18 18 19 19 19 19 19 19
4 4 4 4 4 4 4 4 4 4 5 6 7 7 7 7 7 7 8 8 9 8 9 9 10 9 10 13 14 15 16 17 18 18 18 18 18 18
4 3 3 3 4 6 7 6 6 5 6 6 7 7 9 9 7 7 8 9 9 6 8 9 9 9 9 8 12 15 16 17 17 17 17 17 18 18
3 3 2 2 3 3 5 6 7 8 8 7 8 9 9 8 8 9 8 9 10 9 8 10 9 9 8 8 13 15 16 16 15 16 16 17 18 18
2 2 2 1 1 2 3 4 5 5 5 6 7 8 8 8 8 8 8 9 10 8 7 8 8 9 9 8 11 13 14 14 15 16 16 17 17 17
2 1 0 1 1 3 3 4 5 5 5 7 9 9 10 10 9 7 7 7 8 8 6 6 8 9 9 8 7 10 13 14 15 15 16 16 16 16
2 1 0 1 2 2 3 4 5 5 5 6 6 7 7 7 8 6 5 6 7 6 5 5 7 7 7 6 7 8 9 11 13 14 14 14 14 10
1 1 0 1 2 3 4 4 5 6 5 5 5 5 5 5 4 4 4 5 7 7 6 6 6 6 7 8 9 8 7 8 8 9 10 12 13 11
1 0 1 1 2 3 3 5 7 6 4 4 5 5 5 5 5 5 5 5 6 8 9 7 6 7 8 9 9 8 8 8 7 7 7 10 11 12
2 2 2 1 2 2 3 5 5 3 3 4 5 5 5 5 5 5 5 4 6 6 6 6 6 6 7 8 9 9 9 8 7 7 8 8 8 8
2 3 2 1 1 2 3 3 3 3 4 4 5 5 5 5 4 4 5 5 5 5 4 5 6 7 7 9 9 9 8 7 7 8 8 8 8 7
2 1 0 0 1 2 2 3 3 3 4 4 4 5 5 5 5 5 4 5 5 6 6 5 5 6 8 8 8 8 8 8 8 8 8 9 8 8
2 1 0 1 2 2 3 3 3 3 4 4 4 4 5 5 5 5 5 5 6 6 6 6 6 7 6 4 6 7 7 7 8 9 8 9 9 8
1 0 1 1 2 2 3 3 4 4 4 4 4 4 4 5 5 5 5 5 6 6 6 5 5 6 7 8 5 4 7 8 9 8 8 8 9 9
1 0 1 1 2 2 3 3 4 4 3 4 4 4 4 5 5 5 5 6 6 6 6 5 5 5 6 7 7 7 9 9 8 9 9 9 9 11
1 1 1 1 2 2 3 3 4 4 4 4 4 4 4 4 5 5 5 7 7 6 6 6 6 8 6 6 7 7 7 8 10 8 9 9 9 8
1 1 1 2 2 3 3 3 4 4 4 4 4 4 4 4 5 6 5 6 5 6 7 6 6 5 5 6 8 9 9 9 10 11 10 9 7 7
1 2 2 2 2 3 3 4 4 4 4 4 4 4 4 4 5 5 5 5 5 6 6 6 6 5 5 6 7 8 10 10 8 8 7 9 11 13
Wind_Direction
210 211 215 218 220 225 232 237 252 275 279 274 266 253 256 266 272 274 279 282 286 288 291 293 294 295 295 296 296 296 296 297 297 296 295 294 293 293
202 208 214 214 214 215 221 233 241 257 275 280 276 275 275 273 275 278 281 287 281 283 288 292 294 295 296 296 296 296 296 297 298 298 297 297 295 293
201 210 214 211 213 215 219 227 235 242 263 277 277 281 279 279 281 281 283 284 283 284 289 292 294 295 294 294 294 296 299 299 299 299 300 300 299 297
204 208 211 204 219 222 223 232 239 242 259 277 282 283 281 285 286 287 286 285 285 289 292 293 293 294 294 294 295 298 300 301 301 301 301 302 302 301
203 205 206 207 221 225 231 240 247 252 258 272 284 289 288 287 289 287 288 288 289 291 293 292 294 295 295 295 297 299 301 302 302 301 302 302 302 302
198 206 208 213 227 234 237 246 253 258 264 271 280 287 289 292 291 292 294 296 296 296 293 295 296 295 293 294 298 301 302 302 301 301 302 302 302 301
191 206 212 222 238 242 247 253 256 262 269 274 280 288 291 296 294 297 296 300 299 300 300 300 300 296 297 297 299 302 305 304 304 303 303 304 304 303
191 203 206 216 233 242 251 259 268 271 275 278 282 287 293 297 299 298 300 302 302 305 304 302 301 296 298 299 306 308 307 307 307 308 308 308 307 304
182 186 192 219 235 254 252 257 261 266 274 283 286 290 298 305 306 301 298 297 298 304 304 299 301 297 301 302 306 306 308 309 311 313 312 310 308 306
163 178 199 217 242 269 266 272 277 277 282 284 292 297 304 310 304 298 298 297 295 294 297 296 302 305 309 305 304 307 310 311 313 313 311 310 310 308
133 138 205 244 291 294 286 286 290 293 292 295 300 303 306 307 311 309 308 303 303 306 310 299 306 312 307 301 303 307 308 308 310 311 312 312 312 310
136 136 119 318 316 302 294 294 296 302 305 302 297 297 300 303 307 306 304 301 305 305 321 312 306 318 308 306 315 313 309 309 310 310 311 311 314 311
147 153 91 336 315 306 303 304 311 310 304 302 301 303 306 307 309 309 304 294 297 294 306 312 304 306 296 301 307 307 311 313 313 310 309 312 313 310
143 135 61 12 323 308 307 324 321 313 309 306 304 306 311 315 314 309 302 288 283 285 294 299 290 297 299 300 303 309 314 311 309 309 312 314 309 305
104 82 63 26 311 300 324 331 325 320 316 310 310 312 314 313 310 308 305 295 286 281 285 289 287 291 289 290 296 304 310 310 309 313 314 312 308 306
108 102 91 64 354 338 329 327 328 326 320 311 309 311 314 314 312 316 315 316 309 307 299 297 295 292 287 289 291 295 301 303 309 313 312 307 303 299
114 99 35 329 323 329 325 325 322 320 316 314 311 312 314 315 316 318 313 310 308 313 319 319 309 295 279 278 286 293 303 307 310 313 312 307 304 302
133 167 249 301 315 319 318 318 317 318 317 315 313 314 315 315 316 316 314 311 311 314 317 323 324 319 308 273 246 285 302 311 313 312 308 305 305 307
145 185 272 299 307 308 308 308 308 313 313 308 307 310 311 312 312 314 316 316 314 315 317 319 321 322 321 323 307 269 303 311 310 309 308 306 303 306
167 234 278 293 297 299 302 302 304 306 304 303 305 307 308 309 311 314 315 317 314 314 315 317 321 320 313 310 306 300 299 300 306 308 309 306 299 296
204 248 275 287 290 293 295 296 298 299 304 303 301 303 303 304 307 309 309 312 310 310 315 316 319 313 296 287 291 299 308 308 302 297 305 308 310 308
225 252 267 279 284 286 288 291 292 293 296 294 298 299 298 298 300 302 305 309 309 310 311 310 313 309 304 301 306 309 314 318 312 302 289 281 301 309
243 261 268 272 275 280 283 284 286 289 292 294 295 297 298 296 298 300 303 303 305 308 310 313 316 315 308 303 305 308 314 320 321 322 318 318 310 298